Date,TemperatureHighF,TemperatureAvgF,TemperatureLowF,DewpointHighF,DewpointAvgF,DewpointLowF,HumidityHigh,HumidityAvg,HumidityLow,PressureMaxIn,PressureMinIn,WindSpeedMaxMPH,WindSpeedAvgMPH,GustSpeedMaxMPH,PrecipitationSumIn
2013-1-1,106,85,64,67,48,29,97,41,10,29.43,29.22,0,0,0,0.00
2013-1-2,86,72,61,63,58,54,92,65,33,29.60,29.29,0,0,0,0.00
2013-1-3,84,71,63,58,56,52,81,62,36,29.61,29.47,0,0,0,0.00
2013-1-4,102,77,56,68,50,6,99,52,10,29.55,29.39,0,0,2,0.18
2013-1-5,111,82,58,73,53,33,99,51,10,29.54,29.41,0,0,0,0.00
2013-1-6,104,78,60,72,58,44,99,57,13,29.71,29.53,0,0,0,0.00
2013-1-7,102,79,66,67,60,50,89,57,18,29.72,29.45,0,0,0,0.00
2013-1-8,108,83,61,64,47,26,98,48,10,29.44,28.94,0,0,0,0.00
2013-1-9,89,79,67,57,47,27,61,36,11,29.26,28.86,0,0,0,0.00
2013-1-10,79,71,66,58,55,53,74,57,43,29.38,29.24,0,0,0,0.00
2013-1-11,110,83,63,65,56,38,87,50,10,29.37,29.12,0,0,0,0.00
2013-1-12,115,85,66,68,56,35,97,51,10,29.42,29.17,0,0,0,0.00
2013-1-13,89,74,65,68,63,60,96,72,38,29.41,29.20,0,0,0,0.09
2013-1-14,79,67,60,65,54,39,99,69,25,29.66,29.35,0,0,0,0.01
2013-1-15,84,70,58,59,54,45,96,63,29,29.65,29.46,0,0,0,0.00
2013-1-16,100,77,56,68,54,40,98,55,14,29.50,29.31,0,0,0,0.00
2013-1-17,106,83,69,66,61,43,84,54,12,29.44,29.16,0,0,0,0.00
2013-1-18,116,90,68,70,56,38,93,46,10,29.25,28.97,0,0,0,0.00
2013-1-19,82,72,64,64,58,46,96,65,29,29.52,29.26,0,0,0,0.31
2013-1-20,71,67,63,68,65,62,99,95,85,29.55,29.47,0,0,0,0.38
2013-1-21,82,73,65,71,65,61,99,78,50,29.51,29.37,0,0,0,0.00
2013-1-22,98,76,64,71,65,50,99,78,20,29.39,29.23,0,0,0,0.09
2013-1-23,81,71,64,69,64,61,99,81,55,29.55,29.36,0,0,0,0.00
2013-1-24,88,74,67,67,64,60,93,72,39,29.55,29.42,0,0,0,0.00
2013-1-25,93,78,65,74,66,59,99,72,36,29.44,29.28,0,0,0,0.00
2013-1-26,91,79,68,73,66,58,99,67,34,29.40,29.28,0,0,0,0.00
2013-1-27,76,71,68,72,68,66,99,91,74,29.33,29.26,0,0,0,1.56
2013-1-28,70,69,67,70,69,67,99,99,99,29.30,29.13,0,0,0,2.37
2013-1-29,85,73,66,78,69,64,99,87,52,29.34,29.04,0,0,0,0.70
2013-1-30,84,72,66,71,67,64,99,86,54,29.48,29.35,0,0,0,0.00
2013-1-31,88,74,68,73,69,63,99,87,44,29.47,29.21,0,0,0,0.00
2013-2-1,93,71,62,78,67,59,99,90,33,29.26,29.13,0,0,0,1.15
2013-2-2,72,60,55,62,58,55,99,94,57,29.46,29.18,0,0,0,0.39
2013-2-3,76,64,52,63,55,49,99,76,38,29.58,29.40,0,0,0,0.00
2013-2-4,83,68,55,69,57,50,99,74,35,29.75,29.57,0,0,0,0.00
2013-2-5,83,69,58,67,59,54,99,75,42,29.76,29.64,0,0,0,0.00
2013-2-6,88,70,57,71,56,46,99,68,27,29.69,29.52,0,0,0,0.00
2013-2-7,91,72,55,68,56,44,99,64,21,29.59,29.45,0,0,0,0.00
2013-2-8,99,76,56,69,57,44,99,62,16,29.58,29.45,0,0,0,0.00
2013-2-9,98,78,60,73,62,48,99,66,19,29.54,29.36,0,0,0,0.00
2013-2-10,100,78,65,74,65,44,99,72,16,29.63,29.38,0,0,0,0.38
2013-2-11,71,67,65,69,66,64,99,97,88,29.62,29.54,0,0,0,0.06
2013-2-12,74,68,64,72,66,64,99,95,78,29.69,29.56,0,0,0,0.07
2013-2-13,80,68,60,69,61,53,99,82,40,29.74,29.65,0,0,0,0.01
2013-2-14,85,69,56,74,58,51,99,75,32,29.70,29.58,0,0,0,0.00
2013-2-15,80,68,60,69,62,56,99,83,45,29.92,29.59,0,0,0,0.00
2013-2-16,84,68,58,74,60,54,99,79,37,29.68,29.59,0,0,0,0.07
2013-2-17,86,70,60,72,60,50,99,75,33,29.68,29.58,0,0,0,0.00
2013-2-18,86,69,57,69,60,53,99,78,37,29.63,29.48,0,0,0,0.01
2013-2-19,90,74,60,72,62,51,99,74,28,29.52,29.39,0,0,0,0.01
2013-2-20,87,73,62,72,62,52,99,76,30,29.55,29.44,0,0,0,0.01
2013-2-21,81,70,65,75,68,65,99,92,60,29.57,29.50,0,0,0,0.53
2013-2-22,76,68,64,74,67,63,99,98,75,29.56,29.47,0,0,0,0.58
2013-2-23,73,69,65,73,69,64,99,99,99,29.48,29.21,0,0,0,2.37
2013-2-24,88,77,68,80,72,66,99,86,49,29.45,29.27,0,0,0,0.01
2013-2-25,89,78,68,83,70,67,99,80,50,29.54,29.43,0,0,0,0.00
2013-2-26,85,76,67,72,68,63,99,78,51,29.56,29.46,0,0,0,0.01
2013-2-27,88,75,64,74,65,56,99,74,34,29.51,29.33,0,0,0,0.00
2013-2-28,86,72,62,78,66,61,99,84,45,29.37,29.21,0,0,0,0.02
2013-3-1,65,63,60,65,63,59,99,99,99,29.55,29.32,0,0,0,0.02
2013-3-2,66,62,60,65,62,60,99,99,99,29.64,29.54,0,0,0,0.00
2013-3-3,80,69,63,72,63,57,99,84,46,29.64,29.57,0,0,0,0.00
2013-3-4,78,68,59,73,62,59,99,85,54,29.67,29.60,0,0,0,0.00
2013-3-5,86,70,60,72,62,57,99,80,42,29.66,29.57,0,0,0,0.21
2013-3-6,87,72,61,76,61,52,99,76,36,29.63,29.52,0,0,0,0.00
2013-3-7,92,71,57,75,60,49,99,75,25,29.63,29.50,0,0,0,0.00
2013-3-8,86,70,57,74,60,53,99,76,33,29.67,29.59,0,0,0,0.00
2013-3-9,87,73,66,73,63,52,99,75,35,29.66,29.54,0,0,0,0.00
2013-3-10,90,70,60,67,61,54,99,79,30,29.62,29.49,0,0,0,0.00
2013-3-11,86,72,59,75,62,57,99,77,38,29.63,29.55,0,0,0,0.00
2013-3-12,89,70,59,72,61,51,99,77,32,29.64,29.49,0,0,0,0.00
2013-3-13,90,70,58,70,59,49,99,74,25,29.52,29.30,0,0,0,0.00
2013-3-14,82,70,58,73,64,58,99,84,49,29.43,29.29,0,0,0,0.00
2013-3-15,77,70,66,75,69,66,99,98,85,29.53,29.42,0,0,0,0.04
2013-3-16,94,74,65,74,67,61,99,82,35,29.51,29.22,0,0,0,0.00
2013-3-17,80,69,58,68,54,34,99,67,20,29.59,29.26,0,0,0,0.00
2013-3-18,77,63,51,58,52,45,99,74,33,29.69,29.57,0,0,0,0.00
2013-3-19,80,62,50,68,53,50,99,77,37,29.77,29.66,0,0,0,0.00
2013-3-20,83,65,52,68,57,50,99,80,35,29.77,29.62,0,0,0,0.00
2013-3-21,86,68,52,68,57,47,99,73,26,29.67,29.41,0,0,0,0.00
2013-3-22,89,74,62,71,63,59,99,73,38,29.48,29.39,0,0,0,0.00
2013-3-23,89,74,65,71,66,59,99,79,36,29.52,29.40,0,0,0,0.00
2013-3-24,95,74,65,73,64,51,99,77,23,29.51,29.32,0,0,0,0.00
2013-3-25,92,70,55,69,57,44,99,72,20,29.59,29.45,0,0,0,0.00
2013-3-26,90,72,60,74,67,60,99,86,44,29.60,29.45,0,0,0,0.00
2013-3-27,94,74,63,76,65,60,99,78,34,29.59,29.44,0,0,0,0.00
2013-3-28,89,74,62,76,64,54,99,76,31,29.53,29.36,0,0,0,0.18
2013-3-29,76,65,53,68,56,46,99,79,38,29.59,29.41,0,0,0,0.02
2013-3-30,84,64,52,66,56,50,99,80,35,29.58,29.33,0,0,0,0.00
2013-3-31,78,66,58,69,59,50,99,82,40,29.48,29.30,0,0,0,0.00
2013-4-1,79,67,58,69,59,54,99,81,44,29.54,29.44,0,0,0,0.00
2013-4-2,87,65,55,70,55,37,99,75,17,29.52,29.40,0,0,0,0.00
2013-4-3,69,60,55,68,60,55,99,99,93,29.73,29.52,0,0,0,0.17
2013-4-4,70,62,57,68,62,57,99,97,83,29.89,29.74,0,0,0,0.05
2013-4-5,80,65,55,68,58,47,99,83,33,29.92,29.81,0,0,0,0.00
2013-4-6,73,61,52,70,59,52,99,95,66,29.86,29.71,0,0,0,0.06
2013-4-7,78,63,55,69,60,55,99,89,48,29.74,29.62,0,0,0,0.01
2013-4-8,82,63,55,68,58,50,99,86,34,29.77,29.68,0,0,0,0.00
2013-4-9,74,63,54,69,62,54,99,96,65,29.81,29.70,0,0,0,0.01
2013-4-10,81,63,54,68,58,50,99,87,34,29.75,29.62,0,0,0,0.01
2013-4-11,82,64,51,65,52,46,99,74,29,29.73,29.62,0,0,0,0.00
2013-4-12,79,63,51,69,57,51,99,83,44,29.78,29.65,0,0,0,0.00
2013-4-13,76,62,51,67,59,51,99,93,47,29.66,29.45,0,0,0,0.00
2013-4-14,86,66,55,72,56,44,99,76,24,29.46,29.32,1,0,1,0.00
2013-4-15,86,60,55,64,55,48,99,88,33,29.34,29.21,0,0,0,0.09
2013-4-16,70,63,59,69,62,59,99,98,87,29.46,29.31,0,0,0,0.14
2013-4-17,74,63,55,68,59,55,99,88,53,29.50,29.39,0,0,0,0.00
2013-4-18,76,62,56,68,59,55,99,91,50,29.46,29.34,0,0,0,0.00
2013-4-19,70,58,48,59,48,38,99,74,33,29.44,29.36,0,0,0,0.00
2013-4-20,58,51,45,58,51,45,99,99,99,29.49,29.34,0,0,0,1.30
2013-4-21,69,56,45,64,52,45,99,91,54,29.50,29.35,0,0,0,0.01
2013-4-22,76,59,51,66,54,46,99,87,35,29.35,29.21,0,0,0,0.02
2013-4-23,119,58,44,100,50,43,99,81,30,29.48,29.34,0,0,0,0.00
2013-4-24,75,56,44,63,49,40,99,82,29,29.58,29.45,0,0,0,0.00
2013-4-25,74,55,44,60,47,39,99,80,28,29.67,29.57,0,0,0,0.00
2013-4-26,78,56,41,64,48,41,99,81,29,29.72,29.57,0,0,0,0.00
2013-4-27,80,58,42,65,50,42,99,81,30,29.68,29.52,0,0,0,0.00
2013-4-28,83,60,43,67,51,43,99,80,26,29.60,29.49,0,0,0,0.00
2013-4-29,104,61,44,66,51,37,99,77,10,29.69,29.58,0,0,0,0.00
2013-4-30,76,66,54,67,61,53,99,85,65,29.75,29.62,0,0,0,0.00
2013-5-1,85,76,65,75,61,44,99,61,25,29.63,29.38,0,0,0,0.00
2013-5-2,69,60,51,64,50,37,99,74,32,29.81,29.53,0,0,0,0.00
2013-5-3,72,55,43,61,48,43,99,84,38,29.81,29.59,0,0,0,0.00
2013-5-4,77,52,38,64,49,36,99,89,45,29.70,29.49,0,0,0,1.51
2013-5-5,58,56,56,55,53,53,92,90,90,29.73,29.62,0,0,0,0.00
2013-5-6,56,56,56,53,53,53,90,90,90,29.79,29.69,0,0,0,0.00
2013-5-7,56,56,56,53,53,53,90,90,90,29.86,29.76,0,0,0,0.00
2013-5-8,72,57,48,66,54,48,99,93,58,29.92,29.81,0,0,0,0.00
2013-5-9,74,57,48,66,53,48,99,89,43,29.91,29.81,0,0,0,0.00
2013-5-10,73,55,44,63,51,44,99,89,46,29.93,29.81,0,0,0,0.00
2013-5-11,71,59,51,68,58,50,99,97,77,29.90,29.78,0,0,0,0.01
2013-5-12,59,52,50,59,51,50,99,99,99,29.82,29.77,0,0,0,0.00
2013-5-15,51,49,48,51,49,47,99,99,99,29.35,29.35,0,0,0,0.02
2013-5-16,70,57,46,56,45,39,99,69,33,29.36,29.23,0,0,0,0.00
2013-5-17,66,51,38,58,38,27,99,69,24,29.43,29.31,0,0,0,0.00
2013-5-18,67,49,33,57,37,31,99,72,27,29.47,29.34,0,0,0,0.00
2013-5-19,65,46,31,55,36,28,99,74,26,29.53,29.42,0,0,0,0.00
2013-5-20,66,47,31,54,40,30,99,82,33,29.57,29.45,0,0,0,0.00
2013-5-21,70,51,34,60,42,34,99,78,28,29.52,29.38,0,0,0,0.00
2013-5-22,60,50,40,57,49,39,99,97,82,29.47,29.27,0,0,0,0.13
2013-5-23,60,53,50,60,53,49,99,99,99,29.46,29.27,0,0,0,0.86
2013-5-24,64,56,52,62,55,52,99,98,74,29.59,29.46,0,0,0,0.13
2013-5-25,68,55,47,63,53,46,99,93,60,29.72,29.60,0,0,0,0.01
2013-5-26,67,51,40,60,47,40,99,89,46,29.77,29.66,0,0,0,0.01
2013-5-27,55,48,41,55,47,41,99,99,99,29.89,29.74,0,0,0,0.01
2013-5-28,66,56,32,65,55,15,99,98,49,29.97,29.86,0,0,0,0.02
2013-5-29,68,56,48,66,55,48,99,98,70,29.93,29.80,0,0,0,0.01
2013-5-30,71,56,47,66,53,46,99,94,50,29.88,29.75,0,0,0,0.00
2013-5-31,73,56,44,69,53,44,99,92,52,29.85,29.69,0,0,0,0.00
2013-6-1,68,56,47,66,55,46,99,96,73,29.68,29.40,0,0,0,0.04
2013-6-2,58,54,15,58,53,15,99,99,99,29.45,29.12,0,0,0,0.65
2013-6-3,63,50,42,57,46,41,99,86,45,29.65,29.48,0,0,0,0.00
2013-6-4,65,49,38,60,47,38,99,93,59,29.79,29.68,0,0,0,0.00
2013-6-5,67,52,44,65,51,44,99,99,91,29.78,29.63,0,0,0,0.01
2013-6-6,64,54,47,63,54,46,99,99,99,29.70,29.59,0,0,0,0.00
2013-6-7,70,60,51,68,59,51,99,98,90,29.72,29.53,0,0,0,0.00
2013-6-8,64,53,43,63,52,43,99,98,90,29.91,29.76,0,0,0,0.00
2013-6-9,67,53,45,64,52,44,99,97,77,29.84,29.67,0,0,0,0.01
2013-6-10,66,53,46,66,52,45,99,99,99,29.67,29.54,0,0,0,0.07
2013-6-11,66,52,42,64,52,42,99,97,78,29.62,29.50,0,0,0,0.01
2013-6-12,58,51,46,58,51,46,99,99,99,29.48,29.25,0,0,0,0.51
2013-6-13,64,54,47,63,52,46,99,96,75,29.25,29.13,0,0,0,0.01
2013-6-14,63,53,26,60,49,10,99,88,49,29.20,29.11,0,0,0,0.01
2013-6-15,66,56,45,56,46,40,99,73,40,29.39,29.19,0,0,0,0.00
2013-6-16,62,53,43,53,49,43,99,86,51,29.44,29.32,0,0,26,0.00
2013-6-17,61,46,33,58,44,33,99,96,68,29.32,29.23,0,0,0,0.00
2013-6-18,62,48,35,58,44,35,99,89,52,29.46,29.32,0,0,0,0.00
2013-6-19,47,47,47,46,46,46,99,99,99,29.68,29.48,0,0,0,0.00
2013-6-20,47,47,47,46,46,46,99,99,99,29.71,29.58,0,0,0,0.00
2013-6-21,60,49,42,57,48,42,99,97,77,29.63,29.52,0,0,0,0.00
2013-6-22,61,48,38,57,46,38,99,95,70,29.75,29.65,0,0,0,0.01
2013-6-23,50,48,46,49,48,45,99,99,99,29.80,29.73,0,0,0,0.00
2013-6-29,61,57,54,60,57,53,99,99,99,29.69,29.61,0,0,0,0.18
2013-6-30,60,54,50,59,54,50,99,99,99,29.73,29.65,0,0,0,0.02
2013-7-1,63,54,47,63,51,22,99,93,35,29.70,29.61,0,0,12,0.02
2013-7-2,63,51,44,61,50,43,99,98,82,29.72,29.59,0,0,0,0.00
2013-7-3,64,50,42,60,49,42,99,97,73,29.72,29.59,0,0,0,0.01
2013-7-4,70,51,35,61,48,35,99,91,57,29.58,29.35,0,0,0,0.00
2013-7-5,68,54,42,60,40,25,99,67,27,29.50,29.28,0,0,0,0.00
2013-7-6,61,44,31,52,35,24,99,78,25,29.67,29.52,0,0,0,0.00
2013-7-7,62,42,29,53,38,29,99,87,35,29.84,29.70,0,0,0,0.00
2013-7-8,60,36,31,53,35,30,99,98,68,29.94,29.85,0,0,0,0.00
2013-7-9,71,61,43,68,60,42,99,98,86,29.92,29.67,0,0,0,0.05
2013-7-10,56,48,42,56,47,42,99,99,99,29.93,29.83,0,0,0,0.00
2013-7-11,64,51,44,61,49,41,99,94,67,29.96,29.84,49,6,49,0.00
2013-7-12,59,52,45,59,42,2,99,84,10,29.87,29.71,12,1,12,0.01
2013-7-13,66,53,45,63,47,20,99,86,35,29.78,29.69,0,0,0,0.01
2013-7-14,66,51,44,63,50,43,99,96,73,29.76,29.65,0,0,0,0.00
2013-7-15,68,56,50,66,55,49,99,97,79,29.65,29.56,0,0,0,0.04
2013-7-16,70,58,52,68,57,52,99,96,70,29.66,29.58,0,0,0,0.01
2013-7-17,71,57,50,68,56,50,99,96,74,29.64,29.53,0,0,0,0.07
2013-7-18,72,56,46,69,55,46,99,97,71,29.61,29.46,0,0,0,0.00
2013-7-19,70,56,49,67,56,48,99,98,79,29.45,29.28,0,0,0,0.05
2013-7-20,68,59,53,65,49,30,99,75,37,29.26,29.09,0,0,0,0.01
2013-7-21,62,49,37,39,33,21,99,58,22,29.45,29.29,0,0,0,0.00
2013-7-22,61,44,30,56,35,28,99,78,30,29.51,29.42,0,0,0,0.00
2013-7-23,63,45,30,55,37,29,99,79,34,29.58,29.44,0,0,0,0.00
2013-7-24,62,48,36,55,43,36,99,85,47,29.76,29.60,0,0,0,0.00
2013-7-25,64,46,33,55,42,33,99,88,44,29.82,29.69,0,0,0,0.00
2013-7-26,67,47,35,57,42,35,99,87,42,29.72,29.60,0,0,0,0.00
2013-7-27,67,47,32,57,42,32,99,88,53,29.84,29.72,0,0,0,0.00
2013-7-28,66,50,41,62,48,41,99,96,59,29.81,29.67,0,0,0,0.00
2013-7-29,71,52,38,63,46,38,99,85,38,29.69,29.53,0,0,0,0.00
2013-7-30,71,54,41,62,49,41,99,85,43,29.54,29.42,0,0,0,0.01
2013-7-31,63,54,47,63,54,46,99,99,90,29.61,29.52,0,0,0,0.00
2013-8-1,67,51,40,59,47,40,99,88,46,29.61,29.48,0,0,0,0.01
2013-8-2,67,52,42,61,45,34,99,84,31,29.50,29.30,0,0,0,0.00
2013-8-3,65,49,35,54,38,28,99,74,26,29.41,29.28,0,0,0,0.00
2013-8-4,67,51,38,50,38,21,99,69,19,29.43,29.28,0,0,0,0.00
2013-8-5,68,49,33,54,38,31,99,73,27,29.47,29.33,0,0,0,0.00
2013-8-6,73,51,33,55,36,21,99,68,14,29.40,29.18,0,0,0,0.00
2013-8-7,70,54,46,59,49,42,99,87,37,29.31,29.14,0,0,0,0.39
2013-8-8,57,51,43,52,47,40,99,87,55,29.36,29.08,0,0,0,0.02
2013-8-9,67,51,36,54,44,36,99,83,38,29.48,29.32,0,0,0,0.00
2013-8-10,74,56,41,55,44,30,99,74,22,29.41,29.31,0,0,0,0.20
2013-8-11,75,49,40,57,42,36,99,85,26,29.47,29.29,0,0,0,0.00
2013-8-12,78,57,39,62,41,22,99,66,13,29.27,29.02,0,0,0,0.00
2013-8-13,70,51,32,49,32,17,99,62,13,29.39,29.28,0,0,0,0.00
2013-8-14,74,52,36,57,34,13,99,64,10,29.38,29.16,0,0,0,0.00
2013-8-15,67,53,40,44,29,6,99,50,10,29.57,29.20,0,0,0,0.00
2013-8-16,71,50,30,52,33,16,99,65,14,29.62,29.37,0,0,0,0.00
2013-8-17,74,56,40,60,44,32,99,70,33,29.32,29.14,0,0,0,0.00
2013-8-18,74,53,34,54,34,18,99,62,12,29.45,29.28,0,0,0,0.00
2013-8-19,72,57,39,44,30,17,99,43,13,29.30,29.10,0,0,0,0.00
2013-8-20,63,48,33,41,24,4,99,48,10,29.39,29.25,0,0,0,0.00
2013-8-21,64,44,27,42,30,19,99,66,18,29.42,29.30,0,0,0,0.00
2013-8-22,64,47,29,50,32,23,99,65,21,29.40,29.23,0,0,0,0.00
2013-8-23,66,56,42,46,39,31,99,58,28,29.35,29.21,0,0,0,0.00
2013-8-24,77,58,41,57,43,30,99,68,19,29.58,29.36,0,0,0,0.00
2013-8-25,79,56,41,58,43,24,99,71,13,29.65,29.48,0,0,0,0.00
2013-8-26,73,52,35,54,41,32,99,73,23,29.65,29.48,0,0,0,0.00
2013-8-27,76,56,40,56,43,31,99,70,19,29.58,29.41,0,0,0,0.00
2013-8-28,78,57,44,60,42,23,99,69,13,29.59,29.47,0,0,0,0.00
2013-8-29,78,58,43,60,47,29,99,75,19,29.62,29.44,0,0,0,0.00
2013-8-30,86,66,50,64,45,22,99,59,11,29.41,29.24,0,0,0,0.00
2013-8-31,79,59,45,57,43,24,99,66,15,29.62,29.42,0,0,0,0.00
2013-9-1,80,58,40,56,45,35,99,70,20,29.75,29.65,0,0,0,0.00
2013-9-2,80,59,44,60,47,37,99,72,21,29.83,29.73,0,0,0,0.00
2013-9-3,82,59,44,61,50,42,99,77,27,29.92,29.79,0,0,0,0.00
2013-9-4,82,60,47,63,47,27,99,73,14,29.90,29.71,0,0,0,0.00
2013-9-5,88,62,43,59,43,24,99,64,10,29.77,29.59,0,0,0,0.00
2013-9-6,84,65,46,61,49,40,99,66,22,29.71,29.55,0,0,0,0.00
2013-9-7,90,68,50,65,42,21,99,56,10,29.62,29.44,0,0,0,0.00
2013-9-8,74,65,59,63,60,55,99,85,53,29.65,29.53,0,0,0,0.00
2013-9-9,68,44,34,54,37,28,99,84,23,30.21,30.14,0,0,0,0.00
2013-9-10,74,54,40,42,34,17,99,61,12,30.11,30.04,0,0,0,0.00
2013-9-11,72,54,39,44,35,22,99,57,16,30.04,29.88,0,0,0,0.00
2013-9-12,70,57,45,30,25,16,53,31,13,30.06,29.86,0,0,0,0.00
2013-9-13,63,50,33,41,22,4,99,48,10,30.10,30.01,0,0,0,0.00
2013-9-14,66,42,27,57,34,17,99,78,29,30.18,29.94,0,0,0,0.18
2013-9-15,76,58,47,60,50,46,99,79,36,30.21,30.09,0,0,0,0.00
2013-9-16,65,55,47,62,54,46,99,96,75,30.16,29.78,0,0,0,0.27
2013-9-17,71,61,55,63,57,38,99,89,31,30.25,29.63,0,0,0,0.09
2013-9-18,80,64,50,59,44,17,99,60,11,29.77,29.69,0,0,0,0.00
2013-9-19,78,60,46,50,31,10,99,50,10,29.92,29.74,0,0,0,0.00
2013-9-20,74,57,39,50,31,8,99,50,10,30.03,29.83,0,0,0,0.00
2013-9-21,81,56,36,53,37,19,99,60,10,30.11,29.97,0,0,0,0.00
2013-9-22,86,59,40,54,38,16,99,61,10,30.11,29.97,0,0,0,0.00
2013-9-23,91,67,46,58,37,16,99,52,10,30.09,29.84,0,0,0,0.00
2013-9-24,93,67,41,59,38,-11,96,51,10,29.92,29.67,24,0,24,0.00
2013-9-25,99,70,47,52,36,19,95,42,10,29.97,29.82,0,0,0,0.00
2013-9-26,91,69,46,56,32,6,99,43,10,30.09,29.74,0,0,91,0.00
2013-9-27,88,61,39,41,27,13,82,37,10,30.27,30.09,0,0,0,0.00
2013-9-28,89,66,42,54,30,6,99,46,10,30.09,29.85,0,0,0,0.00
2013-9-29,90,63,43,45,30,13,80,38,10,30.18,30.03,0,0,0,0.00
2013-9-30,96,66,41,56,34,14,99,49,10,30.19,29.96,0,0,0,0.00
2013-10-1,90,65,47,52,42,26,86,52,10,29.99,29.75,0,0,0,0.00
2013-10-2,87,64,42,46,28,13,92,38,10,30.15,29.89,0,0,0,0.00
2013-10-3,70,56,46,47,37,23,93,55,17,30.23,29.84,0,0,0,0.04
2013-10-4,84,56,38,54,35,14,99,59,10,30.32,30.09,0,0,0,0.04
2013-10-5,91,65,42,54,34,14,99,50,10,30.24,29.94,0,0,0,0.04
2013-10-6,99,70,42,50,32,12,91,39,10,30.09,29.75,0,0,0,0.04
2013-10-7,79,62,46,46,38,28,76,46,16,30.05,29.80,0,0,0,0.00
2013-10-8,78,63,49,58,40,14,99,56,10,30.23,29.84,0,0,0,0.00
2013-10-9,98,65,41,58,36,18,99,51,10,30.25,30.01,0,0,0,0.00
2013-10-10,102,73,44,50,32,13,89,37,10,30.07,29.73,0,0,0,0.00
2013-10-11,89,70,58,56,47,18,85,49,18,30.10,29.73,0,0,0,0.00
2013-10-12,102,70,46,58,40,14,99,50,10,30.14,29.83,0,0,0,0.00
2013-10-13,100,77,54,60,38,19,93,40,10,29.86,29.52,0,0,0,0.00
2013-10-14,82,62,50,56,34,13,88,42,10,30.25,29.79,0,0,0,0.02
2013-10-15,91,60,36,45,25,7,91,40,10,30.34,29.84,0,0,0,0.02
2013-10-16,96,65,37,44,26,9,86,35,10,30.25,29.99,0,0,0,0.02
2013-10-17,97,73,47,37,26,10,65,23,10,30.09,29.74,0,0,0,0.02
2013-10-18,76,64,51,40,23,3,59,24,10,30.45,30.14,0,0,0,0.02
2013-10-19,86,63,40,52,37,17,95,52,10,30.48,29.84,0,0,0,0.02
2013-10-20,99,73,52,58,44,23,98,49,10,30.32,30.04,0,0,0,0.02
2013-10-21,105,78,52,60,41,22,95,41,10,30.15,29.94,0,0,0,0.02
2013-10-22,92,75,61,62,54,46,76,51,22,30.09,29.92,0,0,0,0.02
2013-10-23,99,82,68,61,40,16,78,30,10,29.94,29.72,0,0,0,0.02
2013-10-24,85,69,54,42,25,4,61,25,10,30.25,29.84,0,0,0,0.02
2013-10-25,85,61,37,40,24,12,66,32,10,30.35,29.84,0,0,0,0.02
2013-10-26,85,62,42,50,34,13,89,49,10,30.30,30.15,0,0,0,0.02
2013-10-27,84,65,47,55,40,17,94,52,10,30.33,29.84,0,0,0,0.02
2013-10-28,88,68,52,55,45,18,92,53,10,30.27,29.84,0,0,0,0.02
2013-10-29,91,64,50,58,49,18,99,72,10,30.10,29.73,0,0,0,0.24
2013-10-30,84,64,53,56,47,18,99,62,14,30.22,29.84,0,0,0,0.28
2013-10-31,88,65,47,55,43,18,99,59,10,30.30,30.11,0,0,0,0.28
2013-11-1,83,72,62,54,33,18,75,28,14,30.33,29.84,0,0,0,0.28
2013-11-2,98,73,52,62,44,22,99,53,10,30.22,29.93,0,0,0,0.28
2013-11-3,98,73,53,55,42,18,89,46,10,30.19,29.82,0,0,0,0.28
2013-11-4,75,62,51,47,31,11,78,39,10,30.43,30.17,0,0,0,0.28
2013-11-5,69,60,52,45,39,18,74,48,14,30.47,30.36,0,0,0,0.38
2013-11-6,87,63,42,56,39,18,99,54,10,30.38,29.84,0,0,0,0.00
2013-11-7,98,72,47,58,40,26,99,47,10,30.18,29.92,0,0,0,0.00
2013-11-8,104,80,53,54,39,27,81,35,10,30.00,29.73,0,0,0,0.00
2013-11-9,96,78,64,54,44,18,67,36,10,30.04,29.74,0,0,0,0.00
2013-11-10,76,63,58,58,51,18,99,68,14,30.17,29.84,0,0,0,0.05
2013-11-11,65,60,57,64,60,57,99,99,95,30.15,30.02,0,0,0,0.54
2013-11-12,82,65,59,69,60,30,99,87,31,30.08,29.84,0,0,0,1.24
2013-11-13,92,71,58,68,44,16,99,55,10,29.98,29.82,0,0,0,0.01
2013-11-14,96,69,50,59,41,18,99,52,10,29.99,29.80,0,0,0,0.00
2013-11-15,84,66,53,64,52,18,99,67,14,30.01,29.90,0,0,0,0.01
2013-11-16,80,65,56,62,53,40,99,73,24,30.01,29.91,0,0,0,0.11
2013-11-17,69,58,56,59,57,18,99,99,91,29.99,29.95,0,0,0,0.92
2013-11-18,74,59,55,71,59,54,99,97,79,29.96,29.77,0,0,0,1.18
2013-11-19,77,64,58,66,60,57,99,90,51,29.89,29.83,0,0,0,1.18
2013-11-20,72,69,66,66,62,60,95,80,65,30.03,29.87,0,0,0,0.00
2013-11-21,71,65,64,69,65,64,99,98,92,29.98,29.84,0,0,0,0.12
2013-11-22,80,70,64,72,65,60,99,86,55,29.93,29.79,0,0,0,0.48
2013-11-23,75,64,58,74,63,58,99,98,70,30.09,29.71,0,0,0,0.33
2013-11-24,84,68,56,72,53,27,99,70,14,29.91,29.74,0,0,0,0.00
2013-11-25,83,64,55,70,57,43,99,83,27,30.07,29.84,0,0,0,0.21
2013-11-26,84,63,49,60,48,36,99,66,21,30.17,30.05,0,0,0,0.00
2013-11-27,95,67,49,63,46,23,99,61,10,30.19,30.01,0,0,0,0.00
2013-11-28,103,74,51,67,45,27,99,53,10,30.08,29.72,0,0,0,0.00
2013-11-29,74,64,56,71,62,55,99,94,67,30.06,29.63,0,0,0,0.28
2013-11-30,79,64,54,65,54,46,99,75,33,30.33,30.06,0,0,0,0.01
2013-12-1,81,62,50,63,53,46,99,75,31,30.38,30.30,0,0,0,0.00
2013-12-2,94,66,49,65,49,29,99,64,10,30.36,30.14,0,0,0,0.00
2013-12-3,100,70,50,64,47,28,99,58,10,30.19,29.95,0,0,0,0.00
2013-12-4,99,76,53,68,44,24,99,49,10,29.96,29.55,0,0,0,0.00
2013-12-5,82,70,54,77,43,14,99,45,10,29.88,29.50,0,0,0,0.09
2013-12-6,84,63,44,45,31,14,93,41,10,30.18,29.88,0,0,0,0.00
2013-12-7,96,66,45,57,40,23,99,52,10,30.26,30.11,0,0,0,0.00
2013-12-8,101,73,49,60,42,23,99,48,10,30.22,29.94,0,0,0,0.00
2013-12-9,102,78,57,63,46,28,99,45,10,29.99,29.68,0,0,0,0.00
2013-12-10,101,84,69,58,42,20,63,29,10,29.85,29.66,0,0,0,0.00
2013-12-11,100,76,58,64,48,25,99,49,10,29.92,29.71,0,0,0,0.00
2013-12-12,91,73,57,64,54,41,99,60,20,29.97,29.85,0,0,0,0.00
2013-12-13,97,75,56,68,54,29,99,59,10,30.00,29.84,0,0,0,0.00
2013-12-14,86,72,63,68,59,49,99,69,29,30.16,29.91,0,0,0,0.00
2013-12-15,91,72,60,63,55,45,99,61,23,30.19,30.06,0,0,0,0.00
2013-12-16,88,72,59,66,55,43,99,61,22,30.25,30.12,0,0,0,0.00
2013-12-17,95,73,56,65,50,30,99,55,10,30.27,30.14,0,0,0,0.00
2013-12-18,93,72,56,66,51,28,99,57,10,30.33,30.21,0,0,0,0.00
2013-12-19,105,75,52,65,48,28,99,52,10,30.30,30.09,0,0,0,0.00
2013-12-20,113,84,60,66,47,29,99,43,10,30.13,29.91,0,0,0,0.00
2013-12-21,98,80,68,64,58,51,86,51,21,30.09,29.94,0,0,0,0.00
2013-12-22,108,86,69,66,53,33,87,43,10,30.09,29.81,0,0,0,0.00
2013-12-23,97,83,68,62,48,28,71,36,10,29.94,29.74,0,0,0,0.00
2013-12-24,74,68,64,65,61,58,95,78,65,30.21,29.96,0,0,0,0.04
2013-12-25,71,67,64,69,66,62,99,97,85,30.19,30.00,0,0,0,0.54
2013-12-26,92,74,65,70,62,45,99,73,21,30.00,29.84,0,0,0,0.02
2013-12-27,90,73,60,70,58,48,99,67,26,29.99,29.86,0,0,0,0.00
2013-12-28,97,75,61,68,60,48,99,67,19,29.99,29.73,0,0,0,0.00
2013-12-29,85,72,61,72,50,26,99,55,12,30.08,29.66,0,0,0,0.00
2013-12-30,92,72,59,59,50,38,93,52,16,30.08,29.88,0,0,0,0.00
2013-12-31,100,72,52,64,51,25,99,59,10,30.08,29.85,0,0,0,0.00
2014-1-1,93,76,61,68,57,40,99,59,16,30.08,29.84,0,0,0,0.00
2014-1-2,101,82,68,73,54,28,99,52,10,29.81,29.66,0,0,0,0.01